Weather History for Altus, OK

Change the Weather History Date:

Sunday, January 12, 2014

  Actual Average (KLTS) Record (KLTS)
Temperature  
Mean Temperature 57 °F -  
Max Temperature 80 °F 48 °F 78 °F (2014)
Min Temperature 34 °F 26 °F 12 °F (1997)
Degree Days  
Heating Degree Days 8    
Growing Degree Days 7 (Base 50)    
Moisture  
Dew Point 24 °F    
Average Humidity 34    
Maximum Humidity 65    
Minimum Humidity 11    
Precipitation  
Precipitation 0.00 in - - ()
Sea Level Pressure  
Sea Level Pressure 29.77 in    
Wind  
Wind Speed 13 mph (SSW)    
Max Wind Speed 32 mph    
Max Gust Speed 43 mph    
Visibility 10 miles    
Events      
Averages and records for this station are not official NWS values.
T = Trace of Precipitation, MM = Missing Value Source: NWS Daily Summary

Daily Weather History Graph

Daily Weather History Graph

Search for Another Location

Airport:

Trip Planner

Search our weather history database for the weather conditions in past years. The results will help you decide how hot, cold, wet, or windy it might be!

Date:

Astronomy

Jan. 12, 2014 Rise Set
Actual Time 7:44 AM CST 5:46 PM CST
Civil Twilight 7:17 AM CST 6:14 PM CST
Nautical Twilight 6:46 AM CST 6:45 PM CST
Astronomical Twilight 6:15 AM CST 7:15 PM CST
Moon 3:15 PM CST (1/12) 4:45 AM CST (1/12)
Length of Visible Light 10h 57m
Length of Day
10h 02m
Waxing Gibbous, 90% of the Moon is Illuminated
Jan 12
Waxing Gibbous
Jan 15
Full
Jan 23
Last Quarter
Jan 30
New
Feb 6
First Quarter

Hourly Weather History & Observations

Time (CST) Temp. Windchill Dew Point Humidity Pressure Visibility Wind Dir Wind Speed Gust Speed Precip Events Conditions
12:15 AM 40.1 °F 34.7 °F 20.3 °F 45% 29.95 in 10.0 mi ESE 8.1 mph - N/A   Clear
12:35 AM 42.1 °F 37.1 °F 19.9 °F 41% 29.94 in 10.0 mi SE 8.1 mph - N/A   Clear
12:55 AM 39.4 °F 35.2 °F 20.8 °F 47% 29.94 in 10.0 mi SE 5.8 mph - N/A   Clear
1:15 AM 39.6 °F 35.4 °F 21.0 °F 48% 29.93 in 10.0 mi ESE 5.8 mph - N/A   Clear
1:35 AM 41.0 °F 36.4 °F 21.2 °F 45% 29.92 in 10.0 mi SE 6.9 mph - N/A   Clear
1:55 AM 41.7 °F 38.8 °F 20.8 °F 43% 29.92 in 10.0 mi SSE 4.6 mph - N/A   Clear
2:15 AM 38.7 °F 35.2 °F 21.2 °F 50% 29.92 in 10.0 mi SE 4.6 mph - N/A   Clear
2:35 AM 39.9 °F 34.5 °F 21.6 °F 48% 29.91 in 10.0 mi South 8.1 mph - N/A   Clear
2:55 AM 40.6 °F 36.7 °F 21.7 °F 47% 29.90 in 10.0 mi SSE 5.8 mph - N/A   Clear
3:15 AM 39.2 °F 34.2 °F 22.1 °F 50% 29.90 in 10.0 mi SSE 6.9 mph - N/A   Clear
3:40 AM 38.5 °F 34.1 °F 22.5 °F 53% 29.88 in 10.0 mi SE 5.8 mph - N/A   Clear
3:55 AM 35.8 °F 30.1 °F 22.3 °F 58% 29.88 in 10.0 mi ESE 6.9 mph - N/A   Clear
4:15 AM 34.7 °F 28.1 °F 22.8 °F 62% 29.87 in 10.0 mi ESE 8.1 mph - N/A   Clear
4:35 AM 35.1 °F 28.6 °F 23.0 °F 61% 29.87 in 10.0 mi ESE 8.1 mph - N/A   Clear
4:55 AM 36.9 °F 29.1 °F 22.8 °F 57% 29.86 in 10.0 mi SE 11.5 mph - N/A   Clear
5:15 AM 34.5 °F 27.9 °F 23.2 °F 63% 29.85 in 10.0 mi SE 8.1 mph - N/A   Clear
5:35 AM 34.3 °F 27.7 °F 23.5 °F 65% 29.85 in 10.0 mi ESE 8.1 mph - N/A   Clear
5:55 AM 37.2 °F 31.9 °F 23.5 °F 58% 29.85 in 10.0 mi SE 6.9 mph - N/A   Clear
6:15 AM 37.6 °F 30.5 °F 23.5 °F 57% 29.85 in 10.0 mi SE 10.4 mph - N/A   Clear
6:35 AM 36.7 °F 29.4 °F 23.7 °F 59% 29.84 in 10.0 mi SE 10.4 mph - N/A   Clear
6:55 AM 37.2 °F 30.0 °F 23.9 °F 59% 29.83 in 10.0 mi SE 10.4 mph - N/A   Clear
7:15 AM 37.2 °F 29.6 °F 24.3 °F 60% 29.82 in 10.0 mi SSE 11.5 mph - N/A   Clear
7:35 AM 40.6 °F 33.0 °F 25.9 °F 56% 29.82 in 10.0 mi South 13.8 mph - N/A   Clear
7:55 AM 45.5 °F 37.6 °F 25.5 °F 46% 29.81 in 10.0 mi South 20.7 mph - N/A   Clear
8:15 AM 46.8 °F - 25.7 °F 44% 29.80 in 10.0 mi South 19.6 mph - N/A   Clear
8:35 AM 47.5 °F - 26.2 °F 44% 29.82 in 10.0 mi South 15.0 mph - N/A   Clear
8:55 AM 47.7 °F - 27.0 °F 45% 29.81 in 10.0 mi South 13.8 mph - N/A   Clear
9:15 AM 49.6 °F - 27.5 °F 42% 29.81 in 10.0 mi South 13.8 mph - N/A   Clear
9:19 AM 50.0 °F - 28.4 °F 43% 29.81 in 10.0 mi SSW 15.0 mph - N/A   Clear
9:35 AM 52.2 °F - 27.7 °F 39% 29.81 in 10.0 mi SSW 19.6 mph - N/A   Clear
9:55 AM 54.7 °F - 28.0 °F 36% 29.81 in 10.0 mi South 15.0 mph - N/A   Clear
10:15 AM 59.0 °F - 27.7 °F 30% 29.81 in 10.0 mi SSW 20.7 mph - N/A   Clear
10:35 AM 61.7 °F - 27.0 °F 27% 29.81 in 10.0 mi SW 26.5 mph 32.2 mph N/A   Clear
11:00 AM 64.0 °F - 26.8 °F 24% 29.80 in 10.0 mi SW 21.9 mph 28.8 mph N/A   Clear
11:15 AM 65.3 °F - 26.6 °F 23% 29.79 in 10.0 mi SW 28.8 mph 34.5 mph N/A   Clear
11:35 AM 66.7 °F - 26.4 °F 22% 29.78 in 10.0 mi SW 28.8 mph 32.2 mph N/A   Clear
11:55 AM 67.3 °F - 26.2 °F 21% 29.75 in 10.0 mi SW 27.6 mph 34.5 mph N/A   Clear
12:15 PM 68.4 °F - 26.6 °F 21% 29.74 in 10.0 mi SW 23.0 mph 35.7 mph N/A   Clear
12:35 PM 69.8 °F - 26.6 °F 20% 29.72 in 10.0 mi SW 24.2 mph 32.2 mph N/A   Clear
12:55 PM 71.6 °F - 26.8 °F 19% 29.70 in 10.0 mi SW 25.3 mph 32.2 mph N/A   Clear
1:15 PM 72.7 °F - 26.1 °F 18% 29.68 in 10.0 mi SSW 25.3 mph 33.4 mph N/A   Clear
1:40 PM 74.1 °F - 25.7 °F 17% 29.66 in 10.0 mi SW 32.2 mph 42.6 mph N/A   Clear
1:55 PM 75.4 °F - 25.2 °F 15% 29.65 in 10.0 mi SW 27.6 mph 40.3 mph N/A   Clear
2:15 PM 77.0 °F - 25.0 °F 15% 29.64 in 10.0 mi SSW 27.6 mph 35.7 mph N/A   Clear
2:35 PM 78.3 °F - 24.3 °F 14% 29.63 in 10.0 mi SW 25.3 mph 34.5 mph N/A   Clear
3:00 PM 78.8 °F - 24.3 °F 13% 29.62 in 10.0 mi SW 29.9 mph 41.4 mph N/A   Clear
3:15 PM 78.8 °F - 23.9 °F 13% 29.62 in 10.0 mi SW 26.5 mph 36.8 mph N/A   Clear
3:35 PM 79.3 °F - 24.1 °F 13% 29.62 in 10.0 mi SW 23.0 mph - N/A   Clear
3:55 PM 79.7 °F - 24.4 °F 13% 29.61 in 10.0 mi SW 24.2 mph 28.8 mph N/A   Clear
4:15 PM 80.2 °F - 21.7 °F 11% 29.61 in 10.0 mi WSW 23.0 mph 31.1 mph N/A   Clear
4:35 PM 79.7 °F - 21.6 °F 12% 29.61 in 10.0 mi SW 19.6 mph 26.5 mph N/A   Clear
4:55 PM 78.3 °F - 22.6 °F 13% 29.61 in 10.0 mi SW 16.1 mph - N/A   Clear
5:15 PM 75.6 °F - 22.8 °F 14% 29.61 in 10.0 mi SW 11.5 mph - N/A   Clear
5:35 PM 71.4 °F - 23.9 °F 17% 29.61 in 10.0 mi SW 11.5 mph - N/A   Scattered Clouds
5:55 PM 68.7 °F - 23.4 °F 18% 29.61 in 10.0 mi SW 11.5 mph - N/A   Mostly Cloudy
6:15 PM 66.2 °F - 23.0 °F 19% 29.62 in 10.0 mi WSW 9.2 mph - N/A   Overcast
6:35 PM 64.4 °F - 22.1 °F 20% 29.63 in 10.0 mi West 6.9 mph - N/A   Overcast
6:55 PM 62.1 °F - 21.6 °F 21% 29.64 in 10.0 mi West 10.4 mph - N/A   Overcast
7:15 PM 65.7 °F - 20.5 °F 18% 29.64 in 10.0 mi West 17.3 mph 23.0 mph N/A   Overcast
7:35 PM 66.2 °F - 19.9 °F 17% 29.65 in 10.0 mi West 18.4 mph - N/A   Overcast
7:55 PM 64.0 °F - 20.1 °F 19% 29.67 in 10.0 mi West 13.8 mph - N/A   Mostly Cloudy
8:15 PM 60.3 °F - 20.5 °F 22% 29.67 in 10.0 mi WSW 10.4 mph - N/A   Scattered Clouds
8:35 PM 59.2 °F - 20.5 °F 22% 29.68 in 10.0 mi WSW 11.5 mph - N/A   Scattered Clouds
8:55 PM 59.2 °F - 20.7 °F 23% 29.70 in 10.0 mi WSW 10.4 mph - N/A   Clear
9:15 PM 57.7 °F - 23.4 °F 27% 29.75 in 10.0 mi North 25.3 mph 28.8 mph N/A   Scattered Clouds
9:35 PM 57.4 °F - 27.5 °F 32% 29.76 in 10.0 mi North 19.6 mph - N/A   Scattered Clouds
9:55 PM 56.3 °F - 27.9 °F 34% 29.78 in 10.0 mi North 20.7 mph - N/A   Clear
10:15 PM 57.2 °F - 27.5 °F 32% 29.78 in 10.0 mi North 24.2 mph 33.4 mph N/A   Clear
10:35 PM 56.5 °F - 27.7 °F 33% 29.80 in 10.0 mi NNE 21.9 mph 33.4 mph N/A   Clear
10:55 PM 55.6 °F - 27.5 °F 34% 29.82 in 10.0 mi North 21.9 mph 25.3 mph N/A   Clear
11:15 PM 55.6 °F - 26.6 °F 33% 29.83 in 10.0 mi North 21.9 mph 32.2 mph N/A   Clear
11:35 PM 55.0 °F - 26.1 °F 33% 29.83 in 10.0 mi North 23.0 mph 27.6 mph N/A   Clear
11:55 PM 54.9 °F - 25.3 °F 32% 29.86 in 10.0 mi North 23.0 mph 29.9 mph N/A   Clear